Preview of NWS' New Version of Forecast
This preview is not operational and should not be used for support decisions.

Regional Weather Roundup (RWR)

Issued by Gray - Portland, ME (GYX)

                            
944 
ASUS41 KGYX 191505
RWRGYX
WEATHER ROUNDUP FOR MAINE AND NEW HAMPSHIRE
NATIONAL WEATHER SERVICE GRAY ME
1100 AM EDT THU APR 19 2018

MEZ002-005-006-010-012-015-018-020-021-024-026-027-029-191600-
MAINE
  
CITY           SKY/WX    TMP DP  RH WIND       PRES   REMARKS
PORTLAND       LGT RAIN  43  32  65 SW7       29.68F                  
SANFORD        LGT RAIN  38  35  89 VRB3      29.68F                  
BAR HARBOR     FAIR      45  32  60 S9        29.68S                  
WISCASSET      CLOUDY    44  33  65 VRB5      29.70S                  
ROCKLAND       FAIR      43  35  73 S8        29.68F                  
FRYEBURG       CLOUDY    44  27  51 CALM      29.65F                  
LEWISTONAUBURN CLOUDY    44  30  57 CALM      29.67F                  
AUGUSTA        PTSUNNY   44  28  53 CALM      29.68S                  
WATERVILLE     CLOUDY    44  29  55 CALM      29.65F                  
BANGOR         CLOUDY    46  29  51 CALM      29.67F                  
GREENVILLE       N/A     39  25  57 CALM      29.62R                  
MILLINOCKET    FAIR      44  28  53 VRB3      29.67R                  
HOULTON        PTSUNNY   43  28  55 NW8       29.63S                  
PRESQUE ISLE   LGT RAIN  41  32  70 W8        29.64S                  
FRENCHVILLE    CLOUDY    40  32  73 CALM      29.60S                  
CARIBOU        FAIR      41  31  67 VRB6      29.62R                  
$$

NHZ002-005-008-009-011-012-014-191600-
NEW HAMPSHIRE
  
CITY           SKY/WX    TMP DP  RH WIND       PRES   REMARKS
PORTSMOUTH     CLOUDY    36  35  98 SW5       29.68F                  
ROCHESTER      LGT RAIN  37  36  96 CALM      29.66F                  
NASHUA         CLOUDY    37  36  96 S3        29.71S                  
MANCHESTER     CLOUDY    37  34  89 S5        29.69F                  
CONCORD        CLOUDY    37  34  89 SW3       29.69F                  
LACONIA        CLOUDY    39  30  70 W9        29.68F                  
PLYMOUTH       CLOUDY    42  30  63 W6        29.68R                  
BERLIN         PTSUNNY   41  28  60 N5        29.64F                  
WHITEFIELD     CLOUDY    40  28  62 CALM      29.65R                  
JAFFREY        CLOUDY    35  35 100 CALM      29.66F                  
KEENE          CLOUDY    40  35  83 CALM      29.70S                  
LEBANON        CLOUDY    42  30  62 CALM      29.67F                  
MT WASHINGTON  SNOWSHWR  19  19 100 NW7         N/A  VSB 0            
$$

VTZ005-007-008-191600-
VERMONT
  
CITY           SKY/WX    TMP DP  RH WIND       PRES   REMARKS
ST JOHNSBURY     N/A     40  29  64 MISG      29.65S                  
MONTPELIER     CLOUDY    35  31  85 W7        29.70S                  
BURLINGTON     PTSUNNY   41  29  62 NW8       29.71S                  
$$

MAZ007-012-024-CTZ003-RIZ002-NYZ038-NYZ072-191600-
SOUTHERN NEW ENGLAND AND NY
  
CITY           SKY/WX    TMP DP  RH WIND       PRES   REMARKS
BOSTON         CLOUDY    38  34  85 W8        29.73R                  
WORCESTER      CLOUDY    34  31  88 CALM      29.67F                  
NANTUCKET      CLOUDY    43  41  93 NE9       29.68F                  
PROVIDENCE     LGT RAIN  40  39  97 N8        29.72R                  
HARTFORD       CLOUDY    37  35  92 CALM      29.70F                  
ALBANY         CLOUDY    42  31  64 NW7       29.72F                  
NEW YORK CITY  CLOUDY    44  37  76 N8        29.70R                  
$$

ANZ081-ANZ082-ANZ150-NHZ014-MEZ023>029-191600-
COASTAL MARINE OBSERVATIONS
  
STATION/POSITION TIME  TEMP    WIND        PRES    WAVE
                       AIR SEA DIR/SP/G            HT/PER
                 (UTC) (F)     (DEG/KT/KT) (MB)    (FT/S)
MOUNT DESERT ROC 1500   40     220/ 14/ 15 1005.8F
MATINICUS ROCK   1400   39     240/ 14/ 16 1005.6R
ISLE OF SHOALS   1400   34     260/  9/ 10 1006.5R
JEFFREYS LEDGE   1436      41                N/A     2/ 9
CASHES LEDGE BUO 1450   37 40              1006.3F   3/11
$$

.............KEY..............
   WCI - WIND CHILL
   TC  - TEMPERATURE IN CELSIUS
   VSB - VISIBILITY IN MILES
   HX  - HEAT INDEX
   FAIR- INDICATES FEW OR NO CLOUDS BELOW 12,000 FT, WITH NO 
         SIGNIFICANT WEATHER AND/OR OBSTRUCTIONS TO VISIBILITY.